[Iaude] MPEC K109: 2017 CV56 [a=43.48,e=0.09,i=18.1,H=7.96]

mpec at cfa.harvard.edu mpec at cfa.harvard.edu
Tue May 28 13:47:13 EDT 2024


M.P.E.C. 2024-K109                                 Issued 2024 May 28, 17:45 UT

     The Minor Planet Electronic Circulars contain information on unusual
         minor planets, routine data on comets and natural satellites,
         and occasional editorial announcements.  They are published
    on behalf of Division F of the International Astronomical Union by the
          Minor Planet Center, Smithsonian Astrophysical Observatory,
                          Cambridge, MA 02138, U.S.A.
			  
             Prepared using the Tamkin Foundation Computer Network

                              MPC at CFA.HARVARD.EDU
            URL https://www.minorplanetcenter.net/    ISSN 1523-6714

                                   2017 CV56                                    


Additional Observations:
     K17C56V 1C2015 03 22.37648609 14 12.92 +01 11 20.8                WEK109T09
     K17C56V 1C2015 03 22.43871809 14 12.74 +01 11 22.6                WEK109T09
     K17C56V 1C2015 11 10.58696609 24 59.22 +00 43 09.2                WEK109T09
     K17C56V 1C2015 11 10.63775109 24 59.26 +00 43 08.1                WEK109T09
     K17C56V 4C2016 11 28.52476 09 29 21.22 +00 30 23.4          24.8 r1EK109T09
     K17C56V 4C2016 11 28.56332 09 29 21.17 +00 30 22.9          24.8 r1EK109T09
     K17C56V 4C2016 11 28.58020 09 29 21.15 +00 30 22.7          24.7 r1EK109T09
     K17C56V 4C2016 11 28.61822 09 29 21.13 +00 30 22.2          24.7 r1EK109T09
     K17C56V 4C2016 11 29.50691 09 29 20.44 +00 30 11.1          24.3 i1EK109T09
     K17C56V 4C2016 11 29.62736 09 29 20.35 +00 30 09.7          24.7 z1EK109T09
     K17C56V 4C2016 11 29.63007 09 29 20.34 +00 30 09.7          24.2 z1EK109T09
     K17C56V 4C2016 11 29.65490 09 29 20.33 +00 30 09.4          24.0 z1EK109T09
     K17C56V 1C2017 01 02.41826909 28 09.38 +00 28 17.0                WEK109T09
     K17C56V 1C2017 01 02.42093609 28 09.37 +00 28 16.9                WEK109T09
     K17C56V*4C2017 02 01.49516 09 26 13.75 +00 34 53.2          23.9 i1EK109T09
     K17C56V 4C2017 02 01.50344 09 26 13.71 +00 34 53.4          24.8 i1EK109T09
     K17C56V 4C2017 02 01.53643 09 26 13.58 +00 34 54.0          24.2 i1EK109T09
     K17C56V 4C2017 02 01.54461 09 26 13.53 +00 34 54.2          24.1 i1EK109T09
     K17C56V 4C2017 02 01.55276 09 26 13.49 +00 34 54.2          24.1 i1EK109T09

Observer details:
T09 Subaru Telescope, Maunakea.  Observers , H. Aihara, Y. AlSayyad, M. Ando,
    R. Armstrong, J. Bosch, E. Egami, H. Furusawa, J. Furusawa, S. Harasawa,
    Y. Harikane, B.-C. Hsieh, H. Ikeda, K. Ito, I. Iwata, T. Kodama, M. Koike,
    M. Kokubo, Y. Komiyama, X. Li, Y. Liang, Y.-T. Lin, R. H. Lupton, N. B.
    Lust, L. A. MacArthur, K. Mawatari, S. Mineo, H. Miyatake, S. Miyazaki, S.
    More, T. Morishima, H. Murayama, K. Nakajima, F. Nakata, A. J. Nishizawa,
    M. Oguri, N. Okabe, Y. Okura, Y. Ono, K. Osato, M. Ouchi, Y.-C. Pan, A. A.
    Plazas Malagon, P. A. Price, S. L. Reed, E. S. Rykoff, T. Shibuya, M.
    Simunovic, M. A. Strauss, K. Sugimori, Y. Suto, N. Suzuki, M. Takada, Y.
    Takagi, T. Takata, S. Takita, M. Tanaka, S. Tang, D. S. Taranu, T. Terai,
    Y. Toba, E. L. Turner, H. Uchiyama, B. Vijarnwannaluk, C. Z. Waters, Y.
    Yamada, N. Yamamoto, T. Yamashita.  Measurers S. Deen, A. Yamauchi.  8.3-m
    Subaru Telescope + CCD, 8.2-m f/2.0 reflector + CCD(HSC).

Orbital elements:
2017 CV56                                                                       
Epoch 2024 Mar. 31.0 TT = JDT 2460400.5                 Alexandersen            
M 141.68065              (2000.0)            P               Q                  
n   0.00343734     Peri.  171.24205     +0.99800088     -0.02541984             
a  43.4831144      Node   190.73656     +0.01965387     +0.99498020             
e   0.0948646      Incl.   18.09534     +0.06006640     +0.09678968             
P 287              H    7.96          G   0.15           U   6                  
Residuals in seconds of arc
150322 T09  0.0   0.0     161128 T09  0.0   0.0     170201 T09  0.0   0.0
150322 T09  0.0   0.0     161129 T09  0.2-  0.1-    170201 T09  0.0   0.1+
151110 T09  0.0   0.0     161129 T09  0.1+  0.0     170201 T09  0.1+  0.0
151110 T09  0.0   0.0     161129 T09  0.0   0.0     170201 T09  0.1-  0.0
161128 T09  0.2+  0.0     161129 T09  0.2+  0.0     170201 T09  0.1-  0.1-
161128 T09  0.1-  0.0     170102 T09  0.1+  0.1+
161128 T09  0.2-  0.0     170102 T09  0.1+  0.0

Ephemeris:
2017 CV56                a,e,i = 43.48, 0.09, 18                 q = 39.3581
Date    TT    R. A. (2000) Decl.     Delta      r    Elong.  Phase     V
2024 04 28    09 52 26.6 +00 19 59  46.4748 46.8580   111.8     1.1    24.8
...
2024 05 13    09 52 23.0 +00 24 55  46.7164 46.8600    97.6     1.2    24.8
...
2024 05 21    09 52 28.5 +00 26 56  46.8498 46.8611    90.0     1.2    24.8
...
2024 05 27    09 52 35.9 +00 28 08  46.9499 46.8619    84.4     1.2    24.8
2024 05 28    09 52 37.4 +00 28 18  46.9665 46.8620    83.5     1.2    24.8
2024 05 29    09 52 38.9 +00 28 28  46.9831 46.8621    82.5     1.2    24.8
...
2024 06 04    09 52 50.0 +00 29 17  47.0818 46.8629    76.9     1.2    24.9
...
2024 06 12    09 53 08.9 +00 29 56  47.2096 46.8640    69.5     1.2    24.9
...
2024 06 27    09 53 56.0 +00 29 44  47.4304 46.8659    55.8     1.0    24.9

M. P. C. Staff               (C) Copyright 2024 MPC           M.P.E.C. 2024-K109





More information about the Iaude mailing list